Hourly Weather Roundup
Issued by NWS

Current Version | Previous Version | Text Only | Print | Product List | Glossary On
Versions: 1 2 3 4 5 6 7 8 9 10 11 12 13 14 15 16 17 18 19 20 21 22 23 24 25 26 27 28 29 30 31 32 33 34 35 36 37 38 39 40 41 42 43 44 45 46 47 48 49 50
266
NZUS43 KILX 310310
HWRCRS

CRS HOURLY WEATHER ROUNDUP
NATIONAL WEATHER SERVICE, LINCOLN IL
1000 PM CDT SAT JUL 30 2016


CITY           SKY/WX    TMP DP  RH WIND       PRES   REMARKS
CHAMPAIGN      PTCLDY    70  68  93 CALM      29.98R
LAWRENCEVILLE  CLEAR     72  71  97 CALM      29.98R
PEORIA         CLEAR     72  69  90 CALM      29.99R
SPRINGFIELD    CLEAR     72  69  90 CALM      29.98R
$$


CITY           SKY/WX    TMP DP  RH WIND       PRES   REMARKS
BLOOMINGTON    PTCLDY    69  67  93 CALM      30.01R
DECATUR        CLEAR     75  67  76 W3        29.98R
EFFINGHAM      CLEAR     70  70 100 CALM      29.99R
FLORA          CLEAR     72  69  92 CALM      29.98R
GALESBURG      CLEAR     69  66  92 CALM      30.00R
JACKSONVILLE   CLEAR     71  68  90 CALM      29.98R
LACON          MOCLDY    69  67  94 CALM      29.99R
LINCOLN        CLOUDY    75  70  86 CALM      29.98R
LITCHFIELD     NOT AVBL

CITY           SKY/WX    TMP DP  RH WIND       PRES   REMARKS
MACOMB         CLEAR     68  66  94 CALM      30.01R
MATTOON        CLEAR     72  67  84 CALM      29.98R
MOLINE         CLEAR     73  66  78 E6        29.99R
OLNEY          CLEAR     68  68 100 CALM      29.98R
PARIS          PTCLDY    68  68  99 CALM      29.99R
PONTIAC        NOT AVBL
QUINCY         CLEAR     74  69  85 E3        29.99R
RANTOUL        NOT AVBL
ROBINSON       CLEAR     70  68  95 CALM      29.98R
TAYLORVILLE    MOCLDY    71  69  95 MISG      29.99R
TERRE HAUTE    PTCLDY    73  66  78 CALM      29.98R
$$


CITY           SKY/WX    TMP DP  RH WIND       PRES   REMARKS
BURLINGTON     CLEAR     69  69 100 CALM      29.99R
CHICAGO        MOCLDY    70  64  81 NE8       30.00S
DES MOINES     CLEAR     76  66  71 SE7       29.97R
EVANSVILLE     PTCLDY    77  70  79 CALM      29.97S
INDIANAPOLIS   CLOUDY    77  66  68 NW6       29.98R
KANSAS CITY    CLEAR     77  65  66 SE10      29.98R
MILWAUKEE      CLEAR     68  63  84 N8        30.02R
ST LOUIS       CLEAR     78  66  66 CALM      29.97R HX  80
$$





USA.gov is the U.S. government's official web portal to all federal, state and local government web resources and services.